INTELSAT 22 (IS-22)

Last updated on Tue Oct 28 2025 00:02:48 GMT+0000 (Coordinated Universal Time)

1 38098U 12011A 25300.41607927 -.00000047 00000+0 00000+0 0 9999 2 38098 0.0200 111.8965 0001836 111.6073 34.4264 1.00271296 4858
UTC large
Height (km)
Speed (km/s)
/
Latitude / Longitude
Inclination (degrees)
Orbital Period (minutes)
Azimuth
Elevation
Range (km)
Doppler Factor

Next 0 passes for location: London (51.5072 / 0.1276)

Sorry there are no passes over London.